Location: Peterborough
(44.3091°N, 78.3197°W)
Time: 00:46:12
(UTC-04:00)

Altair - Pass Details

Date: 03 August 2024
Orbit: 1501 x 1682 km, 47.2° (Epoch: 19 September)

Event Time Altitude Azimuth Distance (km) Brightness Sun altitude
Rises 23:44:15 0° 286° (WNW) 4,655 10.6 -24.8°
Reaches altitude 10° 23:49:35 10° 261° (W) 3,653 9.6 -25.2°
Maximum altitude 23:53:11 13° 237° (WSW) 3,418 9.2 -25.5°
Enters shadow 23:55:56 11° 218° (SW) 3,552 9.1 -25.7°
